When you browse on this site, cookies collect data to enhance your experience and personalize the content and advertising you see.
Visit our Privacy Policy to learn more. By continuing to use the site, you agree to this use of cookies and data.
  • In Hungary
  • List of Countries
  • For 7 days
  • Water Temperature
  • Weather Map
  • News
  • Weather Widgets
  • user-avatar
    Login

    Hourly Weather Bapatla

    Today, 19 February, Wednesday

    Time Temperature Precipitation Wind Pressure Humidity
    00:00 +24°C° 0 mm 3 mps 760 mmHg 83%
    01:00 +24°C° 0 mm 2 mps 760 mmHg 86%
    02:00 +24°C° 0 mm 2 mps 759 mmHg 88%
    03:00 +23°C° 0 mm 1 mps 759 mmHg 89%
    04:00 +23°C° 0 mm 1 mps 759 mmHg 90%
    05:00 +23°C° 0 mm 1 mps 760 mmHg 94%
    06:00 +24°C° 0 mm 1 mps 760 mmHg 88%
    07:00 +26°C° 0 mm 1 mps 761 mmHg 83%
    08:00 +27°C° 0 mm 1 mps 762 mmHg 77%
    09:00 +29°C° 0 mm 2 mps 762 mmHg 69%
    10:00 +30°C° 0 mm 3 mps 761 mmHg 61%
    11:00 +33°C° 0 mm 4 mps 761 mmHg 53%
    12:00 +33°C° 0 mm 4 mps 760 mmHg 53%
    13:00 +33°C° 0 mm 4 mps 759 mmHg 53%
    14:00 +33°C° 0 mm 4 mps 758 mmHg 53%
    15:00 +32°C° 0 mm 4 mps 758 mmHg 57%
    16:00 +29°C° 0 mm 4 mps 758 mmHg 61%
    17:00 +28°C° 0 mm 5 mps 758 mmHg 65%
    18:00 +27°C° 0 mm 4 mps 759 mmHg 70%
    19:00 +26°C° 0 mm 4 mps 760 mmHg 75%
    20:00 +25°C° 0 mm 4 mps 760 mmHg 80%
    21:00 +25°C° 0 mm 4 mps 760 mmHg 81%
    22:00 +24°C° 0 mm 3 mps 760 mmHg 83%
    23:00 +24°C° 0 mm 3 mps 760 mmHg 84%

    Tomorrow, 20 February, Thursday

    Time Temperature Precipitation Wind Pressure Humidity
    00:00 +24°C° 0 mm 3 mps 760 mmHg 85%
    01:00 +22°C° 0 mm 3 mps 760 mmHg 86%
    02:00 +22°C° 0 mm 3 mps 759 mmHg 87%
    03:00 +22°C° 0 mm 3 mps 759 mmHg 87%
    04:00 +22°C° 0 mm 3 mps 759 mmHg 87%
    05:00 +21°C° 0 mm 2 mps 759 mmHg 88%
    06:00 +24°C° 0 mm 3 mps 760 mmHg 80%
    07:00 +26°C° 0 mm 3 mps 761 mmHg 72%
    08:00 +28°C° 0 mm 3 mps 762 mmHg 63%
    09:00 +29°C° 0 mm 4 mps 762 mmHg 57%
    10:00 +32°C° 0 mm 4 mps 761 mmHg 50%
    11:00 +33°C° 0 mm 4 mps 761 mmHg 44%
    12:00 +33°C° 0 mm 5 mps 760 mmHg 44%
    13:00 +33°C° 0 mm 5 mps 759 mmHg 45%
    14:00 +33°C° 0 mm 5 mps 759 mmHg 45%
    15:00 +32°C° 0 mm 5 mps 759 mmHg 49%
    16:00 +30°C° 0 mm 5 mps 758 mmHg 54%
    17:00 +28°C° 0 mm 5 mps 758 mmHg 58%
    18:00 +27°C° 0 mm 4 mps 759 mmHg 65%
    19:00 +25°C° 0 mm 4 mps 760 mmHg 72%
    20:00 +24°C° 0 mm 3 mps 760 mmHg 78%
    21:00 +22°C° 0 mm 3 mps 760 mmHg 80%
    22:00 +22°C° 0 mm 3 mps 760 mmHg 82%
    23:00 +22°C° 0 mm 3 mps 760 mmHg 84%

    Day after tomorrow, 21 February, Friday

    Time Temperature Precipitation Wind Pressure Humidity
    00:00 +21°C° 0 mm 3 mps 760 mmHg 85%
    01:00 +21°C° 0 mm 2 mps 760 mmHg 86%
    02:00 +21°C° 0 mm 2 mps 760 mmHg 87%
    03:00 +21°C° 0 mm 2 mps 760 mmHg 88%
    04:00 +21°C° 0 mm 2 mps 760 mmHg 89%
    05:00 +20°C° 0 mm 2 mps 760 mmHg 89%
    06:00 +23°C° 0 mm 2 mps 760 mmHg 81%
    07:00 +25°C° 0 mm 2 mps 761 mmHg 73%
    08:00 +27°C° 0 mm 2 mps 762 mmHg 65%
    09:00 +29°C° 0 mm 3 mps 762 mmHg 56%
    10:00 +30°C° 0 mm 3 mps 762 mmHg 47%
    11:00 +33°C° 0 mm 4 mps 762 mmHg 38%
    18:00 +27°C° 0 mm 4 mps 761 mmHg 62%
    19:00 +25°C° 0 mm 4 mps 761 mmHg 69%
    20:00 +22°C° 0 mm 3 mps 762 mmHg 77%
    21:00 +22°C° 0 mm 3 mps 762 mmHg 80%
    22:00 +22°C° 0 mm 3 mps 762 mmHg 84%
    23:00 +21°C° 0 mm 3 mps 762 mmHg 87%

    22 February, Saturday

    Time Temperature Precipitation Wind Pressure Humidity
    00:00 +21°C° 0 mm 2 mps 762 mmHg 88%
    01:00 +21°C° 0 mm 2 mps 761 mmHg 89%
    02:00 +22°C° 0 mm 1 mps 761 mmHg 90%
    03:00 +21°C° 0 mm 1 mps 761 mmHg 91%
    04:00 +21°C° 0 mm 1 mps 761 mmHg 92%
    05:00 +21°C° 0 mm 1 mps 761 mmHg 92%
    06:00 +23°C° 0 mm 2 mps 761 mmHg 86%
    07:00 +24°C° 0 mm 2 mps 762 mmHg 79%
    08:00 +26°C° 0 mm 2 mps 763 mmHg 73%
    09:00 +28°C° 0 mm 3 mps 763 mmHg 65%
    10:00 +30°C° 0 mm 3 mps 762 mmHg 57%
    11:00 +33°C° 0 mm 3 mps 762 mmHg 49%
    12:00 +34°C° 0 mm 4 mps 761 mmHg 50%
    13:00 +34°C° 0 mm 4 mps 760 mmHg 51%
    14:00 +34°C° 0 mm 5 mps 760 mmHg 52%
    15:00 +33°C° 0 mm 5 mps 760 mmHg 57%
    16:00 +30°C° 0 mm 5 mps 760 mmHg 61%
    17:00 +29°C° 0 mm 5 mps 760 mmHg 66%
    18:00 +28°C° 0 mm 5 mps 760 mmHg 73%
    19:00 +26°C° 0 mm 4 mps 761 mmHg 80%
    20:00 +25°C° 0 mm 4 mps 762 mmHg 87%
    21:00 +25°C° 0 mm 4 mps 762 mmHg 89%
    22:00 +25°C° 0 mm 3 mps 762 mmHg 91%
    23:00 +24°C° 0 mm 3 mps 762 mmHg 92%

    23 February, Sunday

    Time Temperature Precipitation Wind Pressure Humidity
    00:00 +24°C° 0 mm 2 mps 761 mmHg 92%
    01:00 +24°C° 0 mm 2 mps 761 mmHg 92%
    02:00 +23°C° 0 mm 2 mps 760 mmHg 92%
    03:00 +23°C° 0 mm 2 mps 760 mmHg 92%
    04:00 +23°C° 0 mm 2 mps 760 mmHg 92%
    05:00 +23°C° 0 mm 2 mps 760 mmHg 92%
    06:00 +24°C° 0 mm 2 mps 761 mmHg 85%
    07:00 +26°C° 0 mm 3 mps 761 mmHg 78%
    08:00 +28°C° 0 mm 3 mps 762 mmHg 70%
    09:00 +29°C° 0 mm 3 mps 762 mmHg 60%
    10:00 +32°C° 0 mm 4 mps 762 mmHg 50%
    11:00 +34°C° 0 mm 5 mps 761 mmHg 40%
    12:00 +34°C° 0 mm 5 mps 760 mmHg 41%
    13:00 +34°C° 0 mm 5 mps 760 mmHg 42%
    14:00 +34°C° 0 mm 5 mps 759 mmHg 44%
    15:00 +33°C° 0 mm 5 mps 759 mmHg 50%
    16:00 +30°C° 0 mm 5 mps 759 mmHg 57%
    17:00 +29°C° 0 mm 4 mps 759 mmHg 63%
    18:00 +28°C° 0 mm 4 mps 759 mmHg 70%
    19:00 +26°C° 0 mm 3 mps 760 mmHg 78%
    20:00 +25°C° 0 mm 3 mps 760 mmHg 85%
    21:00 +24°C° 0 mm 3 mps 760 mmHg 87%
    22:00 +24°C° 0 mm 3 mps 760 mmHg 88%
    23:00 +24°C° 0 mm 3 mps 760 mmHg 90%

    24 February, Monday

    Time Temperature Precipitation Wind Pressure Humidity
    00:00 +24°C° 0 mm 3 mps 760 mmHg 90%
    01:00 +24°C° 0 mm 3 mps 759 mmHg 91%
    02:00 +23°C° 0 mm 2 mps 759 mmHg 91%
    03:00 +23°C° 0 mm 2 mps 759 mmHg 91%
    04:00 +23°C° 0 mm 2 mps 759 mmHg 90%
    05:00 +23°C° 0 mm 2 mps 759 mmHg 90%
    06:00 +25°C° 0 mm 2 mps 759 mmHg 82%
    07:00 +27°C° 0 mm 3 mps 760 mmHg 74%
    08:00 +28°C° 0 mm 3 mps 760 mmHg 65%
    09:00 +30°C° 0 mm 4 mps 760 mmHg 57%
    10:00 +33°C° 0 mm 4 mps 760 mmHg 48%
    11:00 +34°C° 0 mm 5 mps 760 mmHg 39%
    12:00 +34°C° 0 mm 5 mps 759 mmHg 40%
    13:00 +34°C° 0 mm 5 mps 758 mmHg 40%
    14:00 +34°C° 0 mm 5 mps 757 mmHg 41%
    15:00 +33°C° 0 mm 5 mps 757 mmHg 47%
    16:00 +30°C° 0 mm 5 mps 757 mmHg 54%
    17:00 +29°C° 0 mm 4 mps 757 mmHg 60%
    18:00 +28°C° 0 mm 4 mps 758 mmHg 67%
    19:00 +26°C° 0 mm 4 mps 758 mmHg 74%
    20:00 +25°C° 0 mm 4 mps 759 mmHg 82%
    21:00 +25°C° 0 mm 4 mps 759 mmHg 84%
    22:00 +23°C° 0 mm 4 mps 758 mmHg 86%
    23:00 +23°C° 0 mm 4 mps 758 mmHg 89%
    Show more